Location: Henham
(51.9333°N, 0.2500°E)
Time: 07:43:27
(UTC+00:00)

CZ-2C R/B - Pass Details

Date: 23 October 2019
Orbit: 703 x 909 km, 98.1° (Epoch: 20 November)

Event Time Altitude Azimuth Distance (km) Brightness Sun altitude
Exits shadow 20:29:17 51° 317° (NW) 1,122 4.0 -33.9°
Drops below altitude 10° 20:33:38 10° 341° (NNW) 2,549 6.2 -34.5°
Sets 20:36:02 0° 345° (NNW) 3,469 6.9 -34.8°
